Home > Weather > Kløfta > Past weeks

Flag for Norway Past Weather in Kløfta, Norway — Yesterday and Last 2 Weeks

Now
73 °F

Passing clouds.


Feels Like: 77 °F
Forecast: 58 / 69 °F
Wind: 8 mph from South

Location: Oslo Gardermoen Airport

Current Time: Jul 25, 2016 at 12:15:21 PM

Latest Report: Jul 25, 2016 at 11:20 AM


Visibility: N/A

Pressure: 30.04 "Hg

Humidity: 53%

Dew Point: 55 °F

Location of KløftaLocation

Past Weather in Kløfta — Graph

°F

Kløfta Temperature Yesterday

Maximum temperature yesterday: 79 °F (at 4:20 PM)
Minimum temperature yesterday: 57 °F (at 3:50 AM)
Average temperature yesterday: 68 °F

High & Low Weather Summary for the Past Weeks

 TemperatureHumidityPressure
High79 °F (Jul 21, 4:50 PM)100% (Jul 13, 1:20 AM)30.12 "Hg (Jul 13, 1:20 AM)
Low46 °F (Jul 19, 4:20 AM)35% (Jul 16, 5:50 PM)29.42 "Hg (Jul 11, 12:20 PM)
Average63 °F69%29.87 "Hg
* Reported Jul 10 10:20 AM — Jul 25 10:50 AM, Kløfta, Weather by CustomWeather, © 2016

Note: Actual official high and low records may vary slightly from our data, if they occured in-between our weather recording intervals... More about our weather records

Advertising

Kløfta Weather History for the Previous 24 Hours

Scroll right to see more
 ConditionsComfort  
Time TempWeatherWind HumidityBarometerVisibility
10:50 AM
Mon, Jul 25
72 °FPassing clouds.8 mph57%30.04 "HgN/A
10:20 AM72 °FPassing clouds.6 mph57%30.04 "HgN/A
9:50 AM70 °FPassing clouds.5 mph60%30.04 "HgN/A
9:20 AM68 °FPassing clouds.5 mph64%30.04 "HgN/A
8:50 AM68 °FSunny.2 mph69%30.04 "Hg10 mi
8:20 AM64 °FSunny.1 mph78%30.07 "Hg10 mi
7:50 AM63 °FSunny.1 mph77%30.07 "Hg10 mi
7:20 AM61 °FSunny.No wind83%30.07 "Hg10 mi
6:50 AM59 °FSunny.No wind88%30.07 "Hg10 mi
6:20 AM57 °FSunny.No wind88%30.07 "Hg10 mi
5:50 AM57 °FSunny.No wind88%30.07 "Hg10 mi
5:20 AM59 °FClear.No wind82%30.07 "Hg10 mi
4:50 AM59 °FClear.No wind88%30.07 "Hg10 mi
4:20 AM57 °FClear.1 mph82%30.07 "Hg10 mi
3:50 AM59 °FClear.1 mph77%30.07 "Hg10 mi
3:20 AM61 °FClear.No wind77%30.07 "Hg10 mi
2:50 AM61 °FClear.1 mph77%30.07 "Hg10 mi
2:20 AM61 °FClear.2 mph77%30.07 "Hg10 mi
1:50 AM63 °FClear.1 mph73%30.07 "Hg10 mi
1:20 AM63 °FPassing clouds.5 mph73%30.07 "HgN/A
12:50 AM63 °FClear.6 mph73%30.07 "Hg10 mi
12:20 AM63 °FClear.No wind73%30.07 "Hg10 mi
11:50 PM
Sun, Jul 24
63 °FClear.2 mph73%30.07 "Hg10 mi
11:20 PM64 °FClear.2 mph73%30.07 "Hg10 mi
10:50 PM66 °FSunny.7 mph68%30.07 "Hg10 mi
10:20 PM68 °FPassing clouds.6 mph64%30.07 "HgN/A
9:50 PM68 °FSunny.8 mph64%30.07 "Hg10 mi
9:20 PM72 °FPassing clouds.5 mph57%30.07 "HgN/A
8:50 PM73 °FPassing clouds.6 mph57%30.07 "HgN/A
8:20 PM75 °FPassing clouds.6 mph50%30.07 "HgN/A
7:50 PM75 °FPassing clouds.9 mph50%30.07 "HgN/A
7:20 PM75 °FPassing clouds.9 mph50%30.07 "HgN/A
6:50 PM77 °FPassing clouds.8 mph51%30.07 "HgN/A
6:20 PM77 °FPassing clouds.10 mph47%30.07 "HgN/A
5:50 PM77 °FScattered clouds.10 mph42%30.07 "HgN/A
5:20 PM79 °FScattered clouds.9 mph39%30.07 "HgN/A
4:50 PM79 °FScattered clouds.13 mph37%30.07 "HgN/A
4:20 PM79 °FScattered clouds.12 mph39%30.07 "HgN/A
3:50 PM77 °FScattered clouds.10 mph47%30.09 "HgN/A
3:20 PM77 °FScattered clouds.9 mph51%30.09 "HgN/A
2:50 PM75 °FPassing clouds.12 mph54%30.09 "HgN/A
2:20 PM75 °FScattered showers. Scattered clouds.9 mph57%30.09 "HgN/A
1:50 PM73 °FScattered showers. Scattered clouds.9 mph61%30.09 "HgN/A
1:20 PM72 °FPartly sunny.9 mph65%30.12 "HgN/A
12:50 PM72 °FPartly sunny.10 mph65%30.12 "HgN/A
12:20 PM72 °FPartly sunny.9 mph65%30.12 "HgN/A
Weather by CustomWeather, © 2016

See weather overviewHow to use our weather pages